Home   Weather   Santa Clara   Past weeks

Flag for USA Past Weather in Santa Clara, California, USA — Yesterday and Last 2 Weeks

Now
72 °F

Sunny.


Feels Like: 77 °F
Forecast: 53 / 86 °F
Wind: 13 mph from Northwest

Location: San Jose International Airport

Current Time: Apr 30, 2017 at 7:44:45 pm

Latest Report: Apr 30, 2017 at 6:53 pm


Visibility: 10 mi

Pressure: 30.05 "Hg

Humidity: 46%

Dew Point: 50 °F

Location of Santa ClaraLocation

Past Weather in Santa Clara — Graph

°F

Santa Clara Temperature Yesterday

Maximum temperature yesterday: 78 °F (at 2:53 pm)
Minimum temperature yesterday: 53 °F (at 3:53 am)
Average temperature yesterday: 66 °F

High & Low Weather Summary for the Past Weeks

 TemperatureHumidityPressure
High78 °F (Apr 29, 2:53 pm)93% (Apr 18, 7:53 am)30.31 "Hg (Apr 18, 7:53 am)
Low46 °F (Apr 19, 6:53 am)22% (Apr 29, 3:53 pm)29.90 "Hg (Apr 16, 4:53 am)
Average60 °F64%30.08 "Hg
* Reported Apr 15 5:53 pm — Apr 30 5:53 pm, Santa Clara, Weather by CustomWeather, © 2017

Note: Actual official high and low records may vary slightly from our data, if they occured in-between our weather recording intervals... More about our weather records

Advertising

Santa Clara Weather History for the Previous 24 Hours

Scroll right to see more
 ConditionsComfort  
Time TempWeatherWind HumidityBarometerVisibility
5:53 pm
Sun, Apr 30
75 °FSunny.14 mph37%30.06 "Hg10 mi
4:53 pm76 °FSunny.18 mph40%30.06 "Hg10 mi
3:53 pm78 °FSunny.13 mph36%30.08 "Hg10 mi
2:53 pm77 °FSunny.15 mph36%30.10 "Hg10 mi
1:53 pm78 °FSunny.13 mph36%30.11 "Hg10 mi
12:53 pm75 °FSunny.7 mph43%30.11 "Hg10 mi
11:53 am73 °FSunny.6 mph36%30.14 "Hg10 mi
10:53 am70 °FSunny.3 mph42%30.14 "Hg10 mi
9:53 am66 °FSunny.3 mph49%30.14 "Hg10 mi
8:53 am62 °FSunny.No wind60%30.14 "Hg10 mi
7:53 am57 °FSunny.No wind67%30.14 "Hg10 mi
6:53 am53 °FPassing clouds.No wind72%30.13 "Hg10 mi
5:53 am53 °FPassing clouds.No wind72%30.12 "Hg10 mi
4:53 am54 °FClear.No wind74%30.12 "Hg10 mi
3:53 am55 °FClear.3 mph77%30.11 "Hg10 mi
2:53 am56 °FClear.No wind77%30.12 "Hg10 mi
1:53 am56 °FClear.No wind77%30.12 "Hg10 mi
12:53 am57 °FClear.5 mph78%30.12 "Hg10 mi
11:53 pm
Sat, Apr 29
57 °FClear.6 mph78%30.12 "Hg10 mi
10:53 pm60 °FClear.3 mph62%30.12 "Hg10 mi
9:53 pm64 °FClear.5 mph50%30.11 "Hg10 mi
8:53 pm65 °FClear.8 mph42%30.10 "Hg10 mi
7:53 pm69 °FPassing clouds.10 mph33%30.07 "Hg10 mi
Weather by CustomWeather, © 2017

See weather overviewHow to use our weather pages